Starlink 31078

operational
NORAD ID: 58638 Int'l Des: 2023-203 Owner: SPXS Country: US Constellation: starlink
LEOCIRCULAR

About Starlink 31078

Description loading...

Live Position

Loading 3D Globe...

Upcoming Passes

Altitude History

Altitude vs Time

uPlot chart will show altitude changes over time

Two-Line Element Set

1 58638U 23203W 25302.75017031 .00000891 00000-0 41912-4 0 9995
2 58638 43.0020 86.7659 0001451 277.7049 82.3638 15.27582998103537
Epoch: Oct 29, 2025 • Age: 27 hours

Current Status

Altitude 487.1 km
Velocity 7.63 km/s
Sub-Earth Point 43.16°N, 174.43°E
Launch Date Dec 23, 2023
Age 1.8 years
Type internet

Technical Details

Classification Payload
Mass 730.00 kg
Dry Mass 700.00 kg
Total Mass 730.00 kg
Length 0.30 m
Diameter 4.10 m
Span 29.00 m
Shape Box + pan
Manufacturer SPXS
Bus Type Starlink V2M
Phase Status In Orbit
Owner/State SPXS/US

Large Constellations

Loading constellations...